Watford City, ND

2:34 AM CST on November 20, 2017 (GMT -0600)
Watford City

Weather History for KS25 - June, 2013

Change the Weather History Date:

Saturday, June 15, 2013

  Actual Average (KISN) Record (KISN)
Temperature  
Mean Temperature 58 °F -  
Max Temperature 71 °F 74 °F 100 °F (1995)
Min Temperature 46 °F 49 °F 37 °F (1983)
Degree Days  
Heating Degree Days 6    
Growing Degree Days 8 (Base 50)    
Moisture  
Dew Point 46 °F    
Average Humidity 64    
Maximum Humidity 100    
Minimum Humidity 35    
Precipitation  
Precipitation 0.00 in - - ()
Sea Level Pressure  
Sea Level Pressure 29.89 in    
Wind  
Wind Speed 11 mph (WSW)    
Max Wind Speed 26 mph    
Max Gust Speed 36 mph    
Visibility 10 miles    
Events      
Averages and records for this station are not official NWS values.
T = Trace of Precipitation, MM = Missing Value Source: NWS Daily Summary

Daily Weather History Graph

Daily Weather History Graph

Search for Another Location

Airport or City:

Trip Planner

Search our weather history database for the weather conditions in past years. The results will help you decide how hot, cold, wet, or windy it might be!

Date:

Astronomy

Jun. 15, 2013 Rise Set
Actual Time 5:53 AM CDT 9:53 PM CDT
Civil Twilight 5:12 AM CDT 10:34 PM CDT
Nautical Twilight 4:16 AM CDT 11:31 PM CDT
Astronomical Twilight 2:43 AM CDT 1:04 AM CDT
Moon 12:58 PM CDT (6/15) 1:05 AM CDT (6/15)
Length of Visible Light 17h 21m
Length of Day
15h 59m
Waxing Crescent, 40% of the Moon is Illuminated
Jun 15
Waxing Crescent
Jun 16
First Quarter
Jun 23
Full
Jun 29
Last Quarter
Jul 8
New

Hourly Weather History & Observations

Time (CDT) Temp. Windchill Dew Point Humidity Pressure Visibility Wind Dir Wind Speed Gust Speed Precip Events Conditions
12:15 AM 50.0 °F - 48.2 °F 94% 29.89 in 10.0 mi SW 5.8 mph - N/A   Clear
12:35 AM 50.0 °F - 46.4 °F 87% 29.90 in 10.0 mi SW 8.1 mph - N/A   Clear
12:55 AM 50.0 °F - 46.4 °F 87% 29.91 in 10.0 mi SSW 8.1 mph - N/A   Clear
1:15 AM 50.0 °F - 46.4 °F 87% 29.91 in 10.0 mi SSW 3.5 mph - N/A   Clear
1:35 AM 48.2 °F - 46.4 °F 93% 29.91 in 10.0 mi SW 5.8 mph - N/A   Clear
1:55 AM 48.2 °F - 46.4 °F 93% 29.91 in 10.0 mi Calm Calm - N/A   Clear
2:15 AM 48.2 °F - 46.4 °F 93% 29.91 in 10.0 mi SW 3.5 mph - N/A   Clear
2:35 AM 48.2 °F - 46.4 °F 93% 29.91 in 10.0 mi SW 6.9 mph - N/A   Clear
2:55 AM 46.4 °F 43.5 °F 46.4 °F 100% 29.90 in 10.0 mi SW 5.8 mph - N/A   Clear
3:15 AM 46.4 °F 42.9 °F 46.4 °F 100% 29.90 in 10.0 mi SW 6.9 mph - N/A   Clear
3:35 AM 46.4 °F 42.9 °F 46.4 °F 100% 29.89 in 10.0 mi SW 6.9 mph - N/A   Clear
3:55 AM 46.4 °F 44.3 °F 44.6 °F 93% 29.89 in 10.0 mi SW 4.6 mph - N/A   Clear
4:15 AM 46.4 °F 42.4 °F 44.6 °F 93% 29.89 in 10.0 mi SW 8.1 mph - N/A   Clear
4:35 AM 46.4 °F 41.9 °F 46.4 °F 100% 29.90 in 10.0 mi SW 9.2 mph - N/A   Clear
4:55 AM 46.4 °F 41.5 °F 44.6 °F 93% 29.90 in 10.0 mi SSW 10.4 mph - N/A   Clear
5:15 AM 48.2 °F - 44.6 °F 87% 29.90 in 10.0 mi SW 9.2 mph - N/A   Clear
5:35 AM 48.2 °F - 44.6 °F 87% 29.91 in 10.0 mi SW 10.4 mph - N/A   Clear
5:55 AM 48.2 °F - 44.6 °F 87% 29.91 in 10.0 mi West 5.8 mph - N/A   Partly Cloudy
6:15 AM 46.4 °F 44.3 °F 44.6 °F 93% 29.91 in 10.0 mi WSW 4.6 mph - N/A   Clear
6:35 AM 48.2 °F - 44.6 °F 87% 29.91 in 10.0 mi SW 8.1 mph - N/A   Clear
6:55 AM 48.2 °F - 46.4 °F 93% 29.92 in 10.0 mi WSW 5.8 mph - N/A   Clear
7:15 AM 50.0 °F - 46.4 °F 87% 29.92 in 10.0 mi SW 9.2 mph - N/A   Clear
7:35 AM 51.8 °F - 46.4 °F 82% 29.92 in 10.0 mi SW 8.1 mph - N/A   Clear
7:55 AM 53.6 °F - 48.2 °F 82% 29.92 in 10.0 mi SW 11.5 mph - N/A   Clear
8:15 AM 55.4 °F - 46.4 °F 72% 29.92 in 10.0 mi SW 13.8 mph - N/A   Clear
8:35 AM 55.4 °F - 46.4 °F 72% 29.91 in 10.0 mi WSW 12.7 mph - N/A   Clear
8:55 AM 57.2 °F - 46.4 °F 67% 29.92 in 10.0 mi WSW 11.5 mph 16.1 mph N/A   Clear
9:15 AM 59.0 °F - 46.4 °F 63% 29.91 in 10.0 mi West 11.5 mph 21.9 mph N/A   Clear
9:55 AM 60.8 °F - 44.6 °F 55% 29.91 in 10.0 mi West 19.6 mph 27.6 mph N/A   Clear
10:15 AM 62.6 °F - 44.6 °F 52% 29.91 in 10.0 mi West 19.6 mph 24.2 mph N/A   Clear
10:35 AM 62.6 °F - 44.6 °F 52% 29.90 in 10.0 mi West 24.2 mph 31.1 mph N/A   Clear
10:55 AM 62.6 °F - 44.6 °F 52% 29.91 in 10.0 mi West 20.7 mph 28.8 mph N/A   Clear
11:15 AM 64.4 °F - 46.4 °F 52% 29.90 in 10.0 mi West 20.7 mph 29.9 mph N/A   Clear
11:35 AM 64.4 °F - 44.6 °F 49% 29.90 in 10.0 mi WSW 19.6 mph 28.8 mph N/A   Clear
11:55 AM 64.4 °F - 44.6 °F 49% 29.89 in 10.0 mi West 21.9 mph 28.8 mph N/A   Clear
12:15 PM 66.2 °F - 44.6 °F 46% 29.89 in 10.0 mi West 24.2 mph 31.1 mph N/A   Clear
12:35 PM 66.2 °F - 44.6 °F 46% 29.89 in 10.0 mi West 26.5 mph 32.2 mph N/A   Clear
12:55 PM 66.2 °F - 46.4 °F 49% 29.90 in 10.0 mi WSW 23.0 mph 29.9 mph N/A   Clear
1:15 PM 68.0 °F - 46.4 °F 46% 29.89 in 10.0 mi West 24.2 mph 29.9 mph N/A   Partly Cloudy
1:35 PM 68.0 °F - 44.6 °F 43% 29.89 in 10.0 mi West 26.5 mph 33.4 mph N/A   Clear
1:55 PM 68.0 °F - 44.6 °F 43% 29.89 in 10.0 mi West 24.2 mph 33.4 mph N/A   Clear
2:15 PM 69.8 °F - 44.6 °F 40% 29.89 in 10.0 mi West 21.9 mph 31.1 mph N/A   Clear
2:35 PM 71.6 °F - 44.6 °F 38% 29.88 in 10.0 mi WNW 19.6 mph 35.7 mph N/A   Clear
2:55 PM 69.8 °F - 44.6 °F 40% 29.89 in 10.0 mi West 26.5 mph 33.4 mph N/A   Partly Cloudy
3:15 PM 71.6 °F - 44.6 °F 38% 29.88 in 10.0 mi WNW 18.4 mph 33.4 mph N/A   Clear
3:35 PM 71.6 °F - 44.6 °F 38% 29.88 in 10.0 mi WNW 23.0 mph 32.2 mph N/A   Clear
3:55 PM 71.6 °F - 46.4 °F 41% 29.88 in 10.0 mi West 23.0 mph 33.4 mph N/A   Partly Cloudy
4:15 PM 71.6 °F - 46.4 °F 41% 29.87 in 10.0 mi West 19.6 mph 34.5 mph N/A   Clear
4:35 PM 71.6 °F - 46.4 °F 41% 29.87 in 10.0 mi West 19.6 mph 32.2 mph N/A   Clear
4:55 PM 71.6 °F - 44.6 °F 38% 29.87 in 10.0 mi West 19.6 mph 29.9 mph N/A   Partly Cloudy
5:15 PM 71.6 °F - 46.4 °F 41% 29.87 in 10.0 mi West 19.6 mph 32.2 mph N/A   Clear
5:35 PM 71.6 °F - 46.4 °F 41% 29.87 in 10.0 mi West 18.4 mph 27.6 mph N/A   Clear
5:55 PM 71.6 °F - 44.6 °F 38% 29.87 in 10.0 mi West 23.0 mph 31.1 mph N/A   Partly Cloudy
6:15 PM 71.6 °F - 46.4 °F 41% 29.87 in 10.0 mi West 19.6 mph 27.6 mph N/A   Partly Cloudy
6:35 PM 71.6 °F - 46.4 °F 41% 29.87 in 10.0 mi West 13.8 mph 25.3 mph N/A   Clear
6:55 PM 71.6 °F - 44.6 °F 38% 29.87 in 10.0 mi West 19.6 mph 26.5 mph N/A   Clear
7:15 PM 71.6 °F - 42.8 °F 35% 29.87 in 10.0 mi West 19.6 mph 29.9 mph N/A   Clear
7:35 PM 71.6 °F - 44.6 °F 38% 29.87 in 10.0 mi West 15.0 mph 21.9 mph N/A   Clear
7:55 PM 71.6 °F - 44.6 °F 38% 29.87 in 10.0 mi West 19.6 mph 27.6 mph N/A   Clear
8:15 PM 69.8 °F - 44.6 °F 40% 29.88 in 10.0 mi West 16.1 mph 20.7 mph N/A   Clear
8:35 PM 68.0 °F - 44.6 °F 43% 29.88 in 10.0 mi West 11.5 mph 23.0 mph N/A   Clear
8:55 PM 68.0 °F - 46.4 °F 46% 29.88 in 10.0 mi WSW 10.4 mph - N/A   Clear
9:15 PM 66.2 °F - 48.2 °F 52% 29.88 in 10.0 mi WSW 8.1 mph - N/A   Clear
9:35 PM 62.6 °F - 48.2 °F 59% 29.88 in 10.0 mi WSW 5.8 mph - N/A   Clear
9:55 PM 59.0 °F - 48.2 °F 67% 29.88 in 10.0 mi SSW 6.9 mph - N/A   Clear
10:15 PM 60.8 °F - 48.2 °F 63% 29.88 in 10.0 mi SSW 9.2 mph - N/A   Clear
10:35 PM 59.0 °F - 48.2 °F 67% 29.89 in 10.0 mi SSW 6.9 mph - N/A   Clear
10:55 PM 57.2 °F - 48.2 °F 72% 29.89 in 10.0 mi Calm Calm - N/A   Clear
11:15 PM 55.4 °F - 48.2 °F 77% 29.90 in 10.0 mi WSW 4.6 mph - N/A   Clear
11:35 PM 55.4 °F - 48.2 °F 77% 29.90 in 10.0 mi WSW 4.6 mph - N/A   Clear
11:55 PM 53.6 °F - 48.2 °F 82% 29.90 in 10.0 mi WSW 4.6 mph - N/A   Clear